This is the latest recevied weather packets stored in our database for station/object W4MLN-3. If no packets are shown the sender has not sent any weather packets the latest 10 day(s).
| Time | Temp. | Humidity | Pressure | Rain* | Wind** | Luminosity | Snow |
|---|---|---|---|---|---|---|---|
| 1777382103 | 10° C | 95% | 1019.2 hPa | 0.25 mm | - | - | - |
| 1777381803 | 9.44° C | 95% | 1019.2 hPa | 0.51 mm | - | - | - |
| 1777381503 | 9.44° C | 95% | 1019.5 hPa | 0.51 mm | - | - | - |
| 1777381203 | 9.44° C | 95% | 1019.5 hPa | 0.51 mm | - | - | - |
| 1777380903 | 9.44° C | 95% | 1019.3 hPa | 0.76 mm | - | - | - |
| 1777380603 | 9.44° C | 95% | 1020.2 hPa | 0.51 mm | - | - | - |
| 1777380324 | 9.44° C | 95% | 1021 hPa | 0.76 mm | - | - | - |
| 1777380003 | 9.44° C | 95% | 1021.1 hPa | 0.76 mm | - | - | - |
| 1777379703 | 9.44° C | 95% | 1021.3 hPa | 0.76 mm | - | - | - |
| 1777379403 | 8.89° C | 95% | 1021.3 hPa | 0.76 mm | - | - | - |
| 1777379103 | 8.89° C | 95% | 1021 hPa | 0.76 mm | - | - | - |
| 1777378803 | 8.89° C | 95% | 1021.1 hPa | 1.02 mm | - | - | - |
| 1777378503 | 8.89° C | 95% | 1021.4 hPa | 1.27 mm | - | - | - |
| 1777378203 | 8.89° C | 95% | 1021.5 hPa | 1.27 mm | - | - | - |
| 1777377903 | 8.89° C | 95% | 1021.5 hPa | 1.52 mm | - | - | - |
| 1777377604 | 8.89° C | 95% | 1021.4 hPa | 1.78 mm | - | - | - |
| 1777377303 | 8.89° C | 95% | 1021.5 hPa | 1.78 mm | - | - | - |
| 1777377003 | 9.44° C | 95% | 1021.5 hPa | 2.54 mm | - | - | - |
| 1777376703 | 9.44° C | 95% | 1021.4 hPa | 2.54 mm | - | - | - |
| 1777376404 | 8.89° C | 95% | 1021.5 hPa | 2.79 mm | - | - | - |
| 1777376103 | 8.89° C | 95% | 1021.7 hPa | 3.05 mm | - | - | - |
| 1777375804 | 8.89° C | 95% | 1021.7 hPa | 3.3 mm | - | - | - |
| 1777375504 | 8.89° C | 95% | 1021.8 hPa | 3.81 mm | - | - | - |
| 1777375203 | 8.89° C | 95% | 1022 hPa | 4.06 mm | - | - | - |
| 1777374924 | 8.89° C | 95% | 1022 hPa | 4.06 mm | - | - | - |
* Rain latest hour (hover to see other rain measurements)
** Current wind speed in m/s (hover to see current wind gust speed)